Time,TemperatureF,DewpointF,PressureIn,WindDirection,WindDirectionDegrees,WindSpeedMPH,WindSpeedGustMPH,Humidity,HourlyPrecipIn,Conditions,Clouds,dailyrainin,SoftwareType,DateUTC
2013-06-26 00:01:00,70.4,68.9,29.86,North,11,0.0,0.0,95,0.00,,,0.00,Wunderground v.1.15,2013-06-26 04:01:00,
2013-06-26 00:02:00,70.4,68.9,29.86,North,11,0.0,0.0,95,0.00,,,0.00,Wunderground v.1.15,2013-06-26 04:02:00,
2013-06-26 00:03:00,70.4,68.9,29.86,North,11,0.0,0.0,95,0.00,,,0.00,Wunderground v.1.15,2013-06-26 04:03:00,
2013-06-26 00:04:00,70.5,69.0,29.86,North,10,0.0,0.0,95,0.00,,,0.00,Wunderground v.1.15,2013-06-26 04:04:00,
2013-06-26 00:10:00,70.7,69.2,29.86,SSW,198,0.0,0.0,95,0.00,,,0.00,Wunderground v.1.15,2013-06-26 04:10:00,
2013-06-26 00:15:00,70.9,69.4,29.86,South,191,0.0,1.0,95,0.00,,,0.01,Wunderground v.1.15,2013-06-26 04:15:00,
2013-06-26 00:20:00,71.2,69.7,29.86,SSW,202,0.0,0.0,95,0.00,,,0.01,Wunderground v.1.15,2013-06-26 04:20:00,
2013-06-26 00:25:00,71.4,69.9,29.86,WSW,245,1.0,2.0,95,0.00,,,0.01,Wunderground v.1.15,2013-06-26 04:25:00,
2013-06-26 00:31:00,71.5,70.0,29.86,WSW,254,1.0,1.0,95,0.00,,,0.01,Wunderground v.1.15,2013-06-26 04:31:00,
2013-06-26 00:36:00,71.6,70.1,29.86,WSW,253,0.0,1.0,95,0.00,,,0.01,Wunderground v.1.15,2013-06-26 04:36:00,
2013-06-26 00:42:00,71.4,69.6,29.86,WSW,251,0.0,0.0,94,0.00,,,0.01,Wunderground v.1.15,2013-06-26 04:42:00,
2013-06-26 00:48:00,71.3,69.2,29.86,SW,225,0.0,2.0,93,0.00,,,0.01,Wunderground v.1.15,2013-06-26 04:48:00,
2013-06-26 00:53:00,70.9,68.5,29.86,WNW,288,1.0,2.0,92,0.00,,,0.01,Wunderground v.1.15,2013-06-26 04:53:00,
2013-06-26 00:59:00,70.7,67.9,29.86,SSW,199,1.0,1.0,91,0.00,,,0.01,Wunderground v.1.15,2013-06-26 04:59:00,
2013-06-26 01:04:00,70.6,67.8,29.87,SW,217,0.0,4.0,91,0.00,,,0.01,Wunderground v.1.15,2013-06-26 05:04:00,
2013-06-26 01:09:00,70.4,67.3,29.87,SW,233,0.0,0.0,90,0.00,,,0.01,Wunderground v.1.15,2013-06-26 05:09:00,
2013-06-26 01:14:00,70.2,67.1,29.87,WSW,246,1.0,3.0,90,0.00,,,0.01,Wunderground v.1.15,2013-06-26 05:14:00,
2013-06-26 01:20:00,69.9,66.8,29.87,West,276,1.0,4.0,90,0.00,,,0.01,Wunderground v.1.15,2013-06-26 05:20:00,
2013-06-26 01:25:00,69.6,66.5,29.87,WNW,283,1.0,4.0,90,0.00,,,0.01,Wunderground v.1.15,2013-06-26 05:25:00,
2013-06-26 01:31:00,69.3,66.2,29.86,SSW,213,1.0,1.0,90,0.00,,,0.01,Wunderground v.1.15,2013-06-26 05:31:00,
2013-06-26 01:36:00,69.1,66.4,29.86,SW,219,1.0,1.0,91,0.00,,,0.01,Wunderground v.1.15,2013-06-26 05:36:00,
2013-06-26 01:42:00,68.9,66.2,29.86,SW,221,0.0,0.0,91,0.00,,,0.01,Wunderground v.1.15,2013-06-26 05:42:00,
2013-06-26 01:48:00,68.8,66.1,29.85,WSW,244,0.0,1.0,91,0.00,,,0.01,Wunderground v.1.15,2013-06-26 05:48:00,
2013-06-26 01:53:00,68.6,65.9,29.85,WSW,244,0.0,2.0,91,0.00,,,0.01,Wunderground v.1.15,2013-06-26 05:53:00,
2013-06-26 01:59:00,68.4,65.7,29.84,WSW,244,0.0,0.0,91,0.00,,,0.01,Wunderground v.1.15,2013-06-26 05:59:00,
2013-06-26 02:04:00,68.3,65.6,29.84,WSW,244,0.0,0.0,91,0.00,,,0.01,Wunderground v.1.15,2013-06-26 06:04:00,
2013-06-26 02:10:00,68.0,65.6,29.83,WSW,244,0.0,0.0,92,0.00,,,0.01,Wunderground v.1.15,2013-06-26 06:10:00,
2013-06-26 02:15:00,67.9,65.5,29.82,WSW,244,0.0,0.0,92,0.00,,,0.01,Wunderground v.1.15,2013-06-26 06:15:00,
2013-06-26 02:21:00,67.6,65.2,29.82,WSW,244,0.0,0.0,92,0.00,,,0.01,Wunderground v.1.15,2013-06-26 06:21:00,
2013-06-26 02:26:00,67.4,65.0,29.82,WSW,244,0.0,0.0,92,0.00,,,0.01,Wunderground v.1.15,2013-06-26 06:26:00,
2013-06-26 02:32:00,67.2,64.8,29.82,WSW,244,0.0,0.0,92,0.00,,,0.01,Wunderground v.1.15,2013-06-26 06:32:00,
2013-06-26 02:38:00,67.0,64.6,29.82,WSW,244,0.0,0.0,92,0.00,,,0.01,Wunderground v.1.15,2013-06-26 06:38:00,
2013-06-26 02:43:00,66.8,64.7,29.82,WSW,244,0.0,0.0,93,0.00,,,0.01,Wunderground v.1.15,2013-06-26 06:43:00,
2013-06-26 02:49:00,66.6,64.5,29.82,WSW,244,0.0,0.0,93,0.00,,,0.01,Wunderground v.1.15,2013-06-26 06:49:00,
2013-06-26 02:54:00,66.4,64.3,29.82,WSW,244,0.0,0.0,93,0.00,,,0.01,Wunderground v.1.15,2013-06-26 06:54:00,
2013-06-26 03:00:00,66.2,64.1,29.82,WSW,244,0.0,0.0,93,0.00,,,0.01,Wunderground v.1.15,2013-06-26 07:00:00,
2013-06-26 03:05:00,66.1,64.0,29.82,WSW,244,0.0,0.0,93,0.00,,,0.01,Wunderground v.1.15,2013-06-26 07:05:00,
2013-06-26 03:10:00,65.9,63.8,29.82,WSW,244,0.0,0.0,93,0.00,,,0.01,Wunderground v.1.15,2013-06-26 07:10:00,
2013-06-26 03:16:00,65.7,63.6,29.81,WSW,244,0.0,0.0,93,0.00,,,0.01,Wunderground v.1.15,2013-06-26 07:16:00,
2013-06-26 03:21:00,65.6,63.8,29.82,WSW,244,0.0,0.0,94,0.00,,,0.01,Wunderground v.1.15,2013-06-26 07:21:00,
2013-06-26 03:26:00,65.5,63.7,29.81,WSW,244,0.0,0.0,94,0.00,,,0.01,Wunderground v.1.15,2013-06-26 07:26:00,
2013-06-26 03:32:00,65.4,63.6,29.81,WSW,244,0.0,0.0,94,0.00,,,0.01,Wunderground v.1.15,2013-06-26 07:32:00,
2013-06-26 03:38:00,65.2,63.4,29.81,WSW,244,0.0,0.0,94,0.00,,,0.01,Wunderground v.1.15,2013-06-26 07:38:00,
2013-06-26 03:43:00,65.1,63.3,29.81,WSW,244,0.0,0.0,94,0.00,,,0.01,Wunderground v.1.15,2013-06-26 07:43:00,
2013-06-26 03:49:00,64.9,63.1,29.81,WSW,244,0.0,0.0,94,0.00,,,0.01,Wunderground v.1.15,2013-06-26 07:49:00,
2013-06-26 03:54:00,64.9,63.1,29.81,WSW,244,0.0,0.0,94,0.00,,,0.01,Wunderground v.1.15,2013-06-26 07:54:00,
2013-06-26 04:00:00,64.8,63.0,29.81,WSW,244,0.0,0.0,94,0.00,,,0.01,Wunderground v.1.15,2013-06-26 08:00:00,
2013-06-26 04:05:00,64.8,63.0,29.81,WSW,244,0.0,0.0,94,0.00,,,0.01,Wunderground v.1.15,2013-06-26 08:05:00,
2013-06-26 04:11:00,64.8,63.3,29.81,WSW,244,0.0,0.0,95,0.00,,,0.01,Wunderground v.1.15,2013-06-26 08:11:00,
2013-06-26 04:16:00,64.8,63.3,29.81,WSW,244,0.0,0.0,95,0.00,,,0.01,Wunderground v.1.15,2013-06-26 08:16:00,
2013-06-26 04:22:00,64.7,63.2,29.81,WSW,244,0.0,0.0,95,0.00,,,0.01,Wunderground v.1.15,2013-06-26 08:22:00,
2013-06-26 04:28:00,64.5,63.0,29.81,WSW,244,0.0,0.0,95,0.00,,,0.01,Wunderground v.1.15,2013-06-26 08:28:00,
2013-06-26 04:34:00,64.4,62.9,29.81,WSW,244,0.0,0.0,95,0.00,,,0.01,Wunderground v.1.15,2013-06-26 08:34:00,
2013-06-26 04:40:00,64.3,62.8,29.81,WSW,242,0.0,0.0,95,0.00,,,0.01,Wunderground v.1.15,2013-06-26 08:40:00,
2013-06-26 04:45:00,64.3,62.8,29.82,WSW,244,0.0,0.0,95,0.00,,,0.01,Wunderground v.1.15,2013-06-26 08:45:00,
2013-06-26 04:51:00,64.1,62.6,29.82,WSW,244,0.0,0.0,95,0.00,,,0.01,Wunderground v.1.15,2013-06-26 08:51:00,
2013-06-26 04:56:00,64.1,62.6,29.82,WSW,244,0.0,0.0,95,0.00,,,0.01,Wunderground v.1.15,2013-06-26 08:56:00,
2013-06-26 05:02:00,64.1,62.6,29.82,WSW,244,0.0,0.0,95,0.00,,,0.01,Wunderground v.1.15,2013-06-26 09:02:00,
2013-06-26 05:08:00,64.0,62.5,29.82,WSW,244,0.0,0.0,95,0.00,,,0.01,Wunderground v.1.15,2013-06-26 09:08:00,
2013-06-26 05:13:00,64.0,62.5,29.82,WSW,244,0.0,0.0,95,0.00,,,0.01,Wunderground v.1.15,2013-06-26 09:13:00,
2013-06-26 05:19:00,64.0,62.5,29.83,WSW,244,0.0,0.0,95,0.00,,,0.01,Wunderground v.1.15,2013-06-26 09:19:00,
2013-06-26 05:24:00,63.9,62.4,29.82,WSW,244,0.0,0.0,95,0.00,,,0.01,Wunderground v.1.15,2013-06-26 09:24:00,
2013-06-26 05:30:00,63.9,62.4,29.82,North,360,0.0,0.0,95,0.00,,,0.01,Wunderground v.1.15,2013-06-26 09:30:00,
2013-06-26 05:35:00,63.9,62.7,29.82,NE,36,0.0,0.0,96,0.00,,,0.01,Wunderground v.1.15,2013-06-26 09:35:00,
2013-06-26 05:41:00,63.8,62.6,29.82,WNW,292,0.0,0.0,96,0.00,,,0.01,Wunderground v.1.15,2013-06-26 09:41:00,
2013-06-26 05:46:00,63.7,62.5,29.82,WNW,292,0.0,0.0,96,0.00,,,0.01,Wunderground v.1.15,2013-06-26 09:46:00,
2013-06-26 05:52:00,63.6,62.4,29.83,WNW,292,0.0,0.0,96,0.00,,,0.01,Wunderground v.1.15,2013-06-26 09:52:00,
2013-06-26 05:58:00,63.6,62.4,29.82,WNW,292,0.0,0.0,96,0.00,,,0.01,Wunderground v.1.15,2013-06-26 09:58:00,
2013-06-26 06:03:00,63.5,62.3,29.82,WNW,292,0.0,0.0,96,0.00,,,0.01,Wunderground v.1.15,2013-06-26 10:03:00,
2013-06-26 06:09:00,63.5,62.3,29.82,WNW,292,0.0,0.0,96,0.00,,,0.01,Wunderground v.1.15,2013-06-26 10:09:00,
2013-06-26 06:14:00,63.5,62.3,29.82,WNW,292,0.0,0.0,96,0.00,,,0.01,Wunderground v.1.15,2013-06-26 10:14:00,
2013-06-26 06:19:00,63.6,62.4,29.82,WNW,292,0.0,0.0,96,0.00,,,0.01,Wunderground v.1.15,2013-06-26 10:19:00,
2013-06-26 06:24:00,63.8,62.6,29.82,WNW,292,0.0,0.0,96,0.00,,,0.01,Wunderground v.1.15,2013-06-26 10:24:00,
2013-06-26 06:30:00,64.0,62.8,29.82,WNW,292,0.0,0.0,96,0.00,,,0.01,Wunderground v.1.15,2013-06-26 10:30:00,
2013-06-26 06:35:00,64.1,62.9,29.83,WNW,292,0.0,0.0,96,0.00,,,0.01,Wunderground v.1.15,2013-06-26 10:35:00,
2013-06-26 06:41:00,64.2,63.0,29.83,ENE,75,0.0,0.0,96,0.00,,,0.01,Wunderground v.1.15,2013-06-26 10:41:00,
2013-06-26 06:46:00,64.2,63.0,29.83,ENE,75,0.0,0.0,96,0.00,,,0.01,Wunderground v.1.15,2013-06-26 10:46:00,
2013-06-26 06:52:00,64.4,63.2,29.83,ENE,75,0.0,0.0,96,0.00,,,0.01,Wunderground v.1.15,2013-06-26 10:52:00,
2013-06-26 06:58:00,64.6,63.7,29.84,ENE,75,0.0,0.0,97,0.00,,,0.01,Wunderground v.1.15,2013-06-26 10:58:00,
2013-06-26 07:04:00,64.9,64.0,29.84,ENE,75,0.0,0.0,97,0.00,,,0.01,Wunderground v.1.15,2013-06-26 11:04:00,
2013-06-26 07:10:00,65.3,64.4,29.84,ENE,75,0.0,0.0,97,0.00,,,0.01,Wunderground v.1.15,2013-06-26 11:10:00,
2013-06-26 07:15:00,65.6,64.7,29.84,South,169,0.0,0.0,97,0.00,,,0.01,Wunderground v.1.15,2013-06-26 11:15:00,
2013-06-26 07:21:00,66.0,65.1,29.84,South,178,0.0,0.0,97,0.00,,,0.01,Wunderground v.1.15,2013-06-26 11:21:00,
2013-06-26 07:26:00,66.2,65.3,29.84,South,188,1.0,4.0,97,0.00,,,0.01,Wunderground v.1.15,2013-06-26 11:26:00,
2013-06-26 07:31:00,66.5,65.6,29.84,SW,226,1.0,3.0,97,0.00,,,0.01,Wunderground v.1.15,2013-06-26 11:31:00,
2013-06-26 07:38:00,66.7,65.5,29.84,SSW,211,2.0,3.0,96,0.00,,,0.01,Wunderground v.1.15,2013-06-26 11:38:00,
2013-06-26 07:43:00,66.8,65.6,29.84,SSW,210,1.0,2.0,96,0.00,,,0.01,Wunderground v.1.15,2013-06-26 11:43:00,
2013-06-26 07:49:00,67.1,65.9,29.84,SSW,209,1.0,1.0,96,0.00,,,0.01,Wunderground v.1.15,2013-06-26 11:49:00,
2013-06-26 07:55:00,67.3,66.1,29.84,SSW,211,2.0,4.0,96,0.00,,,0.01,Wunderground v.1.15,2013-06-26 11:55:00,
2013-06-26 08:00:00,67.6,66.4,29.84,SSW,212,1.0,1.0,96,0.00,,,0.01,Wunderground v.1.15,2013-06-26 12:00:00,
2013-06-26 08:06:00,67.9,66.4,29.84,SSW,211,0.0,1.0,95,0.00,,,0.01,Wunderground v.1.15,2013-06-26 12:06:00,
2013-06-26 08:12:00,68.2,66.7,29.84,SSW,211,1.0,4.0,95,0.00,,,0.01,Wunderground v.1.15,2013-06-26 12:12:00,
2013-06-26 08:18:00,68.4,66.6,29.85,SSW,206,2.0,5.0,94,0.00,,,0.01,Wunderground v.1.15,2013-06-26 12:18:00,
2013-06-26 08:23:00,68.7,66.9,29.84,SSW,207,1.0,2.0,94,0.00,,,0.01,Wunderground v.1.15,2013-06-26 12:23:00,
2013-06-26 08:28:00,69.0,67.2,29.84,SSW,207,0.0,2.0,94,0.00,,,0.01,Wunderground v.1.15,2013-06-26 12:28:00,
2013-06-26 08:33:00,69.2,67.1,29.85,SSW,207,0.0,0.0,93,0.00,,,0.01,Wunderground v.1.15,2013-06-26 12:33:00,
2013-06-26 08:39:00,69.5,67.4,29.84,SSW,213,0.0,1.0,93,0.00,,,0.01,Wunderground v.1.15,2013-06-26 12:39:00,
2013-06-26 08:44:00,69.9,67.8,29.85,SSW,213,0.0,1.0,93,0.00,,,0.01,Wunderground v.1.15,2013-06-26 12:44:00,
2013-06-26 08:49:00,70.3,67.9,29.85,SW,226,0.0,0.0,92,0.00,,,0.01,Wunderground v.1.15,2013-06-26 12:49:00,
2013-06-26 08:55:00,70.8,68.0,29.85,SW,227,0.0,0.0,91,0.00,,,0.01,Wunderground v.1.15,2013-06-26 12:55:00,
2013-06-26 09:00:00,71.3,68.2,29.85,SSW,207,1.0,1.0,90,0.00,,,0.01,Wunderground v.1.15,2013-06-26 13:00:00,
2013-06-26 09:05:00,71.7,68.0,29.85,SSW,202,1.0,3.0,88,0.00,,,0.01,Wunderground v.1.15,2013-06-26 13:05:00,
2013-06-26 09:11:00,72.2,68.4,29.85,SSW,201,1.0,4.0,88,0.00,,,0.01,Wunderground v.1.15,2013-06-26 13:11:00,
2013-06-26 09:16:00,72.6,68.2,29.85,SSW,206,1.0,4.0,86,0.00,,,0.01,Wunderground v.1.15,2013-06-26 13:16:00,
2013-06-26 09:22:00,72.9,68.1,29.86,SSW,205,1.0,2.0,85,0.00,,,0.01,Wunderground v.1.15,2013-06-26 13:22:00,
2013-06-26 09:28:00,73.0,68.2,29.86,SW,214,1.0,2.0,85,0.00,,,0.01,Wunderground v.1.15,2013-06-26 13:28:00,
2013-06-26 09:33:00,72.9,68.1,29.86,SW,233,0.0,2.0,85,0.00,,,0.01,Wunderground v.1.15,2013-06-26 13:33:00,
2013-06-26 09:39:00,72.7,67.9,29.85,WSW,238,0.0,0.0,85,0.00,,,0.01,Wunderground v.1.15,2013-06-26 13:39:00,
2013-06-26 09:44:00,72.7,67.9,29.85,SW,232,0.0,2.0,85,0.00,,,0.01,Wunderground v.1.15,2013-06-26 13:44:00,
2013-06-26 09:50:00,72.6,67.8,29.86,West,262,1.0,1.0,85,0.00,,,0.01,Wunderground v.1.15,2013-06-26 13:50:00,
2013-06-26 09:55:00,72.6,68.2,29.86,West,276,1.0,2.0,86,0.00,,,0.01,Wunderground v.1.15,2013-06-26 13:55:00,
2013-06-26 10:01:00,72.6,68.2,29.85,SW,222,1.0,2.0,86,0.00,,,0.01,Wunderground v.1.15,2013-06-26 14:01:00,
2013-06-26 10:06:00,72.6,68.2,29.86,SW,236,1.0,2.0,86,0.00,,,0.01,Wunderground v.1.15,2013-06-26 14:06:00,
2013-06-26 10:11:00,72.6,68.2,29.86,WSW,238,0.0,0.0,86,0.00,,,0.01,Wunderground v.1.15,2013-06-26 14:11:00,
2013-06-26 10:17:00,72.7,67.9,29.85,SW,231,0.0,3.0,85,0.00,,,0.01,Wunderground v.1.15,2013-06-26 14:17:00,
2013-06-26 10:22:00,72.9,68.5,29.84,SW,222,1.0,1.0,86,0.00,,,0.01,Wunderground v.1.15,2013-06-26 14:22:00,
2013-06-26 10:28:00,73.4,68.6,29.84,SSW,198,1.0,4.0,85,0.00,,,0.01,Wunderground v.1.15,2013-06-26 14:28:00,
2013-06-26 10:33:00,74.1,69.3,29.84,SW,215,1.0,3.0,85,0.00,,,0.01,Wunderground v.1.15,2013-06-26 14:33:00,
2013-06-26 10:39:00,74.4,69.2,29.84,NW,323,0.0,0.0,84,0.00,,,0.01,Wunderground v.1.15,2013-06-26 14:39:00,
2013-06-26 10:44:00,74.5,69.3,29.84,SW,215,0.0,1.0,84,0.00,,,0.01,Wunderground v.1.15,2013-06-26 14:44:00,
2013-06-26 10:50:00,74.6,69.4,29.84,South,186,1.0,1.0,84,0.00,,,0.01,Wunderground v.1.15,2013-06-26 14:50:00,
2013-06-26 10:55:00,75.0,69.5,29.84,WNW,295,1.0,4.0,83,0.00,,,0.01,Wunderground v.1.15,2013-06-26 14:55:00,
2013-06-26 11:01:00,75.1,69.2,29.84,WNW,282,1.0,1.0,82,0.00,,,0.01,Wunderground v.1.15,2013-06-26 15:01:00,
2013-06-26 11:06:00,75.1,69.2,29.84,WNW,293,1.0,4.0,82,0.00,,,0.01,Wunderground v.1.15,2013-06-26 15:06:00,
2013-06-26 11:11:00,75.0,68.8,29.85,SW,229,1.0,2.0,81,0.00,,,0.01,Wunderground v.1.15,2013-06-26 15:11:00,
2013-06-26 11:17:00,75.0,69.8,29.85,WNW,289,1.0,2.0,84,0.00,,,0.01,Wunderground v.1.15,2013-06-26 15:17:00,
2013-06-26 11:22:00,75.3,69.1,29.85,WNW,287,1.0,1.0,81,0.00,,,0.01,Wunderground v.1.15,2013-06-26 15:22:00,
2013-06-26 11:28:00,75.5,69.3,29.85,West,273,1.0,2.0,81,0.00,,,0.01,Wunderground v.1.15,2013-06-26 15:28:00,
2013-06-26 11:34:00,76.0,70.5,29.84,WNW,288,1.0,2.0,83,0.00,,,0.01,Wunderground v.1.15,2013-06-26 15:34:00,
2013-06-26 11:39:00,76.2,69.6,29.84,West,279,1.0,1.0,80,0.00,,,0.01,Wunderground v.1.15,2013-06-26 15:39:00,
2013-06-26 11:44:00,76.2,69.9,29.84,West,279,1.0,3.0,81,0.00,,,0.01,Wunderground v.1.15,2013-06-26 15:44:00,
2013-06-26 11:50:00,76.2,69.6,29.85,West,281,1.0,4.0,80,0.00,,,0.01,Wunderground v.1.15,2013-06-26 15:50:00,
2013-06-26 11:55:00,76.1,69.8,29.84,WNW,293,1.0,4.0,81,0.00,,,0.01,Wunderground v.1.15,2013-06-26 15:55:00,
2013-06-26 12:01:00,76.3,70.0,29.84,WNW,288,1.0,4.0,81,0.00,,,0.01,Wunderground v.1.15,2013-06-26 16:01:00,
2013-06-26 12:07:00,76.4,69.8,29.84,WNW,288,1.0,4.0,80,0.00,,,0.01,Wunderground v.1.15,2013-06-26 16:07:00,
2013-06-26 12:12:00,76.5,70.2,29.84,WNW,286,0.0,1.0,81,0.00,,,0.01,Wunderground v.1.15,2013-06-26 16:12:00,
2013-06-26 12:18:00,76.8,69.4,29.84,West,278,0.0,2.0,78,0.00,,,0.01,Wunderground v.1.15,2013-06-26 16:18:00,
2013-06-26 12:23:00,76.7,69.7,29.84,West,277,1.0,1.0,79,0.00,,,0.01,Wunderground v.1.15,2013-06-26 16:23:00,
2013-06-26 12:29:00,76.7,70.4,29.84,SSW,209,0.0,0.0,81,0.00,,,0.01,Wunderground v.1.15,2013-06-26 16:29:00,
2013-06-26 12:35:00,77.3,70.6,29.84,SSW,209,0.0,0.0,80,0.00,,,0.01,Wunderground v.1.15,2013-06-26 16:35:00,
2013-06-26 12:40:00,77.7,70.3,29.84,SSW,209,0.0,0.0,78,0.00,,,0.01,Wunderground v.1.15,2013-06-26 16:40:00,
2013-06-26 12:46:00,78.3,69.7,29.84,SSW,203,1.0,4.0,75,0.00,,,0.01,Wunderground v.1.15,2013-06-26 16:46:00,
2013-06-26 12:52:00,78.7,70.5,29.83,SSW,206,1.0,2.0,76,0.00,,,0.01,Wunderground v.1.15,2013-06-26 16:52:00,
2013-06-26 12:58:00,79.1,70.9,29.83,SSW,207,1.0,2.0,76,0.00,,,0.01,Wunderground v.1.15,2013-06-26 16:58:00,
2013-06-26 13:04:00,79.0,69.6,29.84,SSW,196,1.0,4.0,73,0.00,,,0.01,Wunderground v.1.15,2013-06-26 17:04:00,
2013-06-26 13:10:00,78.7,70.1,29.84,SSW,202,1.0,1.0,75,0.00,,,0.01,Wunderground v.1.15,2013-06-26 17:10:00,
2013-06-26 13:15:00,78.7,70.1,29.83,WNW,286,0.0,3.0,75,0.00,,,0.01,Wunderground v.1.15,2013-06-26 17:15:00,
2013-06-26 13:21:00,78.9,69.9,29.84,SSW,203,1.0,1.0,74,0.00,,,0.01,Wunderground v.1.15,2013-06-26 17:21:00,
2013-06-26 13:26:00,78.8,70.2,29.84,SSW,198,1.0,2.0,75,0.00,,,0.01,Wunderground v.1.15,2013-06-26 17:26:00,
2013-06-26 13:31:00,78.6,69.6,29.84,SSW,202,1.0,3.0,74,0.00,,,0.01,Wunderground v.1.15,2013-06-26 17:31:00,
2013-06-26 13:36:00,78.8,71.0,29.84,SSW,207,1.0,3.0,77,0.00,,,0.01,Wunderground v.1.15,2013-06-26 17:36:00,
2013-06-26 13:41:00,79.3,71.5,29.84,WNW,282,1.0,1.0,77,0.00,,,0.01,Wunderground v.1.15,2013-06-26 17:41:00,
2013-06-26 13:47:00,79.4,70.0,29.83,WNW,286,1.0,1.0,73,0.00,,,0.01,Wunderground v.1.15,2013-06-26 17:47:00,
2013-06-26 13:54:00,79.6,69.8,29.83,SW,223,1.0,1.0,72,0.00,,,0.01,Wunderground v.1.15,2013-06-26 17:54:00,
2013-06-26 13:59:00,79.8,70.0,29.82,South,186,1.0,2.0,72,0.00,,,0.01,Wunderground v.1.15,2013-06-26 17:59:00,
2013-06-26 14:05:00,79.9,69.7,29.82,South,186,1.0,2.0,71,0.00,,,0.01,Wunderground v.1.15,2013-06-26 18:05:00,
2013-06-26 14:10:00,79.8,70.8,29.81,SSW,196,0.0,4.0,74,0.00,,,0.01,Wunderground v.1.15,2013-06-26 18:10:00,
2013-06-26 14:16:00,79.9,70.9,29.80,SSW,195,1.0,4.0,74,0.00,,,0.01,Wunderground v.1.15,2013-06-26 18:16:00,
2013-06-26 14:22:00,80.3,70.9,29.80,SSE,150,1.0,4.0,73,0.00,,,0.01,Wunderground v.1.15,2013-06-26 18:22:00,
2013-06-26 14:28:00,80.6,70.7,29.80,SSE,153,1.0,4.0,72,0.00,,,0.01,Wunderground v.1.15,2013-06-26 18:28:00,
2013-06-26 14:34:00,81.2,71.7,29.80,SE,138,0.0,1.0,73,0.00,,,0.01,Wunderground v.1.15,2013-06-26 18:34:00,
2013-06-26 14:40:00,81.4,71.5,29.80,SE,140,0.0,0.0,72,0.00,,,0.01,Wunderground v.1.15,2013-06-26 18:40:00,
2013-06-26 14:45:00,81.6,70.9,29.79,SE,142,0.0,1.0,70,0.00,,,0.01,Wunderground v.1.15,2013-06-26 18:45:00,
2013-06-26 14:51:00,81.6,71.3,29.79,SSW,200,0.0,0.0,71,0.00,,,0.01,Wunderground v.1.15,2013-06-26 18:51:00,
2013-06-26 14:56:00,81.7,71.4,29.79,SSW,196,1.0,1.0,71,0.00,,,0.01,Wunderground v.1.15,2013-06-26 18:56:00,
2013-06-26 15:02:00,81.9,71.6,29.79,SSW,200,0.0,3.0,71,0.00,,,0.01,Wunderground v.1.15,2013-06-26 19:02:00,
2013-06-26 15:08:00,82.0,70.8,29.79,SSW,196,1.0,3.0,69,0.00,,,0.01,Wunderground v.1.15,2013-06-26 19:08:00,
2013-06-26 15:13:00,82.0,71.7,29.78,SSW,198,1.0,2.0,71,0.00,,,0.01,Wunderground v.1.15,2013-06-26 19:13:00,
2013-06-26 15:19:00,82.6,72.2,29.79,South,186,1.0,1.0,71,0.00,,,0.01,Wunderground v.1.15,2013-06-26 19:19:00,
2013-06-26 15:24:00,82.7,71.5,29.79,SSW,194,1.0,3.0,69,0.00,,,0.01,Wunderground v.1.15,2013-06-26 19:24:00,
2013-06-26 15:30:00,82.7,71.5,29.80,SSW,194,0.0,2.0,69,0.00,,,0.01,Wunderground v.1.15,2013-06-26 19:30:00,
2013-06-26 15:36:00,82.9,71.3,29.80,SSW,196,1.0,4.0,68,0.00,,,0.01,Wunderground v.1.15,2013-06-26 19:36:00,
2013-06-26 15:41:00,83.0,72.6,29.80,SSW,203,1.0,4.0,71,0.00,,,0.01,Wunderground v.1.15,2013-06-26 19:41:00,
2013-06-26 15:47:00,82.9,71.3,29.80,SSW,210,1.0,5.0,68,0.00,,,0.01,Wunderground v.1.15,2013-06-26 19:47:00,
2013-06-26 15:53:00,83.1,71.4,29.80,SE,125,1.0,3.0,68,0.00,,,0.01,Wunderground v.1.15,2013-06-26 19:53:00,
2013-06-26 15:58:00,83.4,71.3,29.80,South,186,1.0,3.0,67,0.00,,,0.01,Wunderground v.1.15,2013-06-26 19:58:00,
2013-06-26 16:04:00,83.4,71.3,29.80,SSW,206,0.0,1.0,67,0.00,,,0.01,Wunderground v.1.15,2013-06-26 20:04:00,
2013-06-26 16:09:00,83.6,71.5,29.79,SSW,200,1.0,4.0,67,0.00,,,0.01,Wunderground v.1.15,2013-06-26 20:09:00,
2013-06-26 16:15:00,83.8,72.1,29.79,SSW,207,1.0,4.0,68,0.00,,,0.01,Wunderground v.1.15,2013-06-26 20:15:00,
2013-06-26 16:21:00,84.0,72.7,29.79,WSW,241,0.0,1.0,69,0.00,,,0.01,Wunderground v.1.15,2013-06-26 20:21:00,
2013-06-26 16:26:00,84.5,72.3,29.78,SE,142,0.0,1.0,67,0.00,,,0.01,Wunderground v.1.15,2013-06-26 20:26:00,
2013-06-26 16:31:00,84.5,71.4,29.78,SE,132,1.0,4.0,65,0.00,,,0.01,Wunderground v.1.15,2013-06-26 20:31:00,
2013-06-26 16:37:00,84.2,72.0,29.77,SE,141,1.0,4.0,67,0.00,,,0.01,Wunderground v.1.15,2013-06-26 20:37:00,
2013-06-26 16:42:00,84.4,71.3,29.78,SE,141,0.0,1.0,65,0.00,,,0.01,Wunderground v.1.15,2013-06-26 20:42:00,
2013-06-26 16:48:00,84.2,71.6,29.78,SE,141,0.0,1.0,66,0.00,,,0.01,Wunderground v.1.15,2013-06-26 20:48:00,
2013-06-26 16:53:00,84.0,71.4,29.78,SSW,213,0.0,3.0,66,0.00,,,0.01,Wunderground v.1.15,2013-06-26 20:53:00,
2013-06-26 16:58:00,83.8,72.1,29.78,SSW,213,1.0,3.0,68,0.00,,,0.01,Wunderground v.1.15,2013-06-26 20:58:00,
2013-06-26 17:03:00,83.6,70.6,29.78,SSW,204,0.0,2.0,65,0.00,,,0.01,Wunderground v.1.15,2013-06-26 21:03:00,
2013-06-26 17:09:00,83.6,71.9,29.77,SSW,204,0.0,0.0,68,0.00,,,0.01,Wunderground v.1.15,2013-06-26 21:09:00,
2013-06-26 17:14:00,83.4,71.7,29.77,SSW,203,0.0,1.0,68,0.00,,,0.01,Wunderground v.1.15,2013-06-26 21:14:00,
2013-06-26 17:19:00,83.3,72.1,29.77,SSW,205,0.0,4.0,69,0.00,,,0.01,Wunderground v.1.15,2013-06-26 21:19:00,
2013-06-26 17:25:00,82.7,71.1,29.77,South,191,1.0,4.0,68,0.00,,,0.01,Wunderground v.1.15,2013-06-26 21:25:00,
2013-06-26 17:30:00,82.5,71.7,29.77,SSW,192,1.0,2.0,70,0.00,,,0.01,Wunderground v.1.15,2013-06-26 21:30:00,
2013-06-26 17:35:00,82.1,71.3,29.77,SSW,196,1.0,2.0,70,0.00,,,0.01,Wunderground v.1.15,2013-06-26 21:35:00,
2013-06-26 17:41:00,81.9,71.6,29.77,SSW,209,2.0,2.0,71,0.00,,,0.01,Wunderground v.1.15,2013-06-26 21:41:00,
2013-06-26 17:46:00,81.8,71.1,29.77,South,181,1.0,2.0,70,0.00,,,0.01,Wunderground v.1.15,2013-06-26 21:46:00,
2013-06-26 17:51:00,82.0,71.7,29.76,South,182,0.0,0.0,71,0.00,,,0.01,Wunderground v.1.15,2013-06-26 21:51:00,
2013-06-26 17:56:00,82.0,71.2,29.76,SSW,207,1.0,3.0,70,0.00,,,0.01,Wunderground v.1.15,2013-06-26 21:56:00,
2013-06-26 18:02:00,82.0,72.5,29.76,SSW,211,1.0,2.0,73,0.00,,,0.01,Wunderground v.1.15,2013-06-26 22:02:00,
2013-06-26 18:08:00,82.3,72.4,29.76,SSW,213,1.0,3.0,72,0.00,,,0.01,Wunderground v.1.15,2013-06-26 22:08:00,
2013-06-26 18:13:00,82.9,72.5,29.76,SSW,213,1.0,2.0,71,0.00,,,0.01,Wunderground v.1.15,2013-06-26 22:13:00,
2013-06-26 18:19:00,83.3,72.5,29.76,SSW,213,0.0,0.0,70,0.00,,,0.01,Wunderground v.1.15,2013-06-26 22:19:00,
2013-06-26 18:24:00,83.6,72.3,29.75,SSW,211,0.0,4.0,69,0.00,,,0.01,Wunderground v.1.15,2013-06-26 22:24:00,
2013-06-26 18:29:00,83.6,71.9,29.75,SSW,203,1.0,1.0,68,0.00,,,0.01,Wunderground v.1.15,2013-06-26 22:29:00,
2013-06-26 18:35:00,83.9,72.6,29.75,SSW,207,1.0,2.0,69,0.00,,,0.01,Wunderground v.1.15,2013-06-26 22:35:00,
2013-06-26 18:41:00,84.2,72.0,29.75,SSW,207,0.0,2.0,67,0.00,,,0.01,Wunderground v.1.15,2013-06-26 22:41:00,
2013-06-26 18:46:00,84.2,71.6,29.75,SSW,205,1.0,2.0,66,0.00,,,0.01,Wunderground v.1.15,2013-06-26 22:46:00,
2013-06-26 18:52:00,84.3,72.1,29.75,SSW,205,0.0,0.0,67,0.00,,,0.01,Wunderground v.1.15,2013-06-26 22:52:00,
2013-06-26 18:58:00,84.5,71.9,29.74,SSW,205,0.0,2.0,66,0.00,,,0.01,Wunderground v.1.15,2013-06-26 22:58:00,
2013-06-26 19:03:00,84.4,72.2,29.74,SSW,207,0.0,0.0,67,0.00,,,0.01,Wunderground v.1.15,2013-06-26 23:03:00,
2013-06-26 19:09:00,84.3,72.1,29.74,SSW,207,1.0,1.0,67,0.00,,,0.01,Wunderground v.1.15,2013-06-26 23:09:00,
2013-06-26 19:14:00,84.2,72.0,29.74,SSW,207,1.0,3.0,67,0.00,,,0.01,Wunderground v.1.15,2013-06-26 23:14:00,
2013-06-26 19:19:00,84.0,72.3,29.74,SSW,207,1.0,2.0,68,0.00,,,0.01,Wunderground v.1.15,2013-06-26 23:19:00,
2013-06-26 19:25:00,83.9,71.8,29.74,SSW,207,1.0,2.0,67,0.00,,,0.01,Wunderground v.1.15,2013-06-26 23:25:00,
2013-06-26 19:30:00,83.9,72.2,29.74,SSW,207,1.0,1.0,68,0.00,,,0.01,Wunderground v.1.15,2013-06-26 23:30:00,
2013-06-26 19:36:00,83.8,72.1,29.74,SSW,207,0.0,2.0,68,0.00,,,0.01,Wunderground v.1.15,2013-06-26 23:36:00,
2013-06-26 19:43:00,83.6,71.9,29.74,SSW,207,1.0,1.0,68,0.00,,,0.01,Wunderground v.1.15,2013-06-26 23:43:00,
2013-06-26 19:49:00,83.2,72.0,29.74,SSW,207,0.0,0.0,69,0.00,,,0.01,Wunderground v.1.15,2013-06-26 23:49:00,
2013-06-26 19:55:00,82.7,72.3,29.74,SW,232,0.0,3.0,71,0.00,,,0.01,Wunderground v.1.15,2013-06-26 23:55:00,
2013-06-26 20:01:00,82.1,72.2,29.74,SW,230,0.0,1.0,72,0.00,,,0.01,Wunderground v.1.15,2013-06-27 00:01:00,
2013-06-26 20:06:00,81.8,71.9,29.74,SSW,205,1.0,5.0,72,0.00,,,0.01,Wunderground v.1.15,2013-06-27 00:06:00,
2013-06-26 20:13:00,81.3,71.8,29.74,SSW,205,0.0,1.0,73,0.00,,,0.01,Wunderground v.1.15,2013-06-27 00:13:00,
2013-06-26 20:19:00,81.0,71.9,29.74,SSW,205,0.0,0.0,74,0.00,,,0.01,Wunderground v.1.15,2013-06-27 00:19:00,
2013-06-26 20:24:00,80.7,71.6,29.74,SSW,205,0.0,1.0,74,0.00,,,0.01,Wunderground v.1.15,2013-06-27 00:24:00,
2013-06-26 20:29:00,80.5,71.8,29.74,SSW,205,0.0,0.0,75,0.00,,,0.01,Wunderground v.1.15,2013-06-27 00:29:00,
2013-06-26 20:34:00,80.2,71.9,29.75,SSW,205,0.0,0.0,76,0.00,,,0.01,Wunderground v.1.15,2013-06-27 00:34:00,
2013-06-26 20:40:00,79.9,71.7,29.75,SSW,205,0.0,0.0,76,0.00,,,0.01,Wunderground v.1.15,2013-06-27 00:40:00,
2013-06-26 20:45:00,79.7,71.8,29.75,WSW,246,0.0,0.0,77,0.00,,,0.01,Wunderground v.1.15,2013-06-27 00:45:00,
2013-06-26 20:51:00,79.3,71.8,29.75,WSW,246,0.0,0.0,78,0.00,,,0.01,Wunderground v.1.15,2013-06-27 00:51:00,
2013-06-26 20:56:00,79.1,72.0,29.75,WSW,246,0.0,0.0,79,0.00,,,0.01,Wunderground v.1.15,2013-06-27 00:56:00,
2013-06-26 21:01:00,78.7,71.6,29.75,WSW,245,0.0,0.0,79,0.00,,,0.01,Wunderground v.1.15,2013-06-27 01:01:00,
2013-06-26 21:07:00,78.4,71.3,29.74,West,280,0.0,0.0,79,0.00,,,0.01,Wunderground v.1.15,2013-06-27 01:07:00,
2013-06-26 21:13:00,78.0,71.3,29.75,North,360,0.0,0.0,80,0.00,,,0.01,Wunderground v.1.15,2013-06-27 01:13:00,
2013-06-26 21:17:00,77.8,71.5,29.75,West,271,0.0,0.0,81,0.00,,,0.01,Wunderground v.1.15,2013-06-27 01:17:00,
2013-06-26 21:23:00,77.5,71.2,29.74,West,271,0.0,0.0,81,0.00,,,0.01,Wunderground v.1.15,2013-06-27 01:23:00,
2013-06-26 21:29:00,77.2,71.3,29.74,West,270,0.0,2.0,82,0.00,,,0.01,Wunderground v.1.15,2013-06-27 01:29:00,
2013-06-26 21:34:00,76.9,71.0,29.74,West,269,0.0,2.0,82,0.00,,,0.01,Wunderground v.1.15,2013-06-27 01:34:00,
2013-06-26 21:40:00,76.7,70.8,29.74,West,269,0.0,0.0,82,0.00,,,0.01,Wunderground v.1.15,2013-06-27 01:40:00,
2013-06-26 21:45:00,76.5,70.9,29.74,West,270,0.0,0.0,83,0.00,,,0.01,Wunderground v.1.15,2013-06-27 01:45:00,
2013-06-26 21:50:00,76.4,70.9,29.74,West,268,0.0,0.0,83,0.00,,,0.01,Wunderground v.1.15,2013-06-27 01:50:00,
2013-06-26 21:56:00,76.2,71.0,29.74,West,268,0.0,0.0,84,0.00,,,0.01,Wunderground v.1.15,2013-06-27 01:56:00,
2013-06-26 22:04:00,76.0,70.8,29.75,West,268,0.0,0.0,84,0.00,,,0.01,Wunderground v.1.15,2013-06-27 02:04:00,
2013-06-26 22:09:00,75.9,70.7,29.75,West,269,0.0,0.0,84,0.00,,,0.01,Wunderground v.1.15,2013-06-27 02:09:00,
2013-06-26 22:15:00,75.7,70.5,29.75,West,268,0.0,0.0,84,0.00,,,0.01,Wunderground v.1.15,2013-06-27 02:15:00,
2013-06-26 22:20:00,75.5,70.3,29.76,SE,143,0.0,6.0,84,0.00,,,0.01,Wunderground v.1.15,2013-06-27 02:20:00,
2013-06-26 22:25:00,75.2,69.3,29.76,SSE,147,1.0,6.0,82,0.00,,,0.01,Wunderground v.1.15,2013-06-27 02:25:00,
2013-06-26 22:30:00,75.0,69.1,29.76,East,96,0.0,2.0,82,0.00,,,0.01,Wunderground v.1.15,2013-06-27 02:30:00,
2013-06-26 22:36:00,74.8,68.6,29.76,East,96,0.0,2.0,81,0.00,,,0.01,Wunderground v.1.15,2013-06-27 02:36:00,
2013-06-26 22:41:00,74.6,68.0,29.76,East,96,0.0,0.0,80,0.00,,,0.01,Wunderground v.1.15,2013-06-27 02:41:00,
2013-06-26 22:46:00,74.3,67.0,29.76,East,96,0.0,0.0,78,0.00,,,0.01,Wunderground v.1.15,2013-06-27 02:46:00,
2013-06-26 22:55:00,74.0,66.7,29.76,East,96,0.0,0.0,78,0.00,,,0.01,Wunderground v.1.15,2013-06-27 02:55:00,
2013-06-26 23:01:00,73.7,66.8,29.76,East,95,0.0,0.0,79,0.00,,,0.01,Wunderground v.1.15,2013-06-27 03:01:00,
2013-06-26 23:06:00,73.4,66.5,29.76,East,96,0.0,0.0,79,0.00,,,0.01,Wunderground v.1.15,2013-06-27 03:06:00,
2013-06-26 23:13:00,73.0,66.5,29.75,SE,128,0.0,0.0,80,0.00,,,0.01,Wunderground v.1.15,2013-06-27 03:13:00,
2013-06-26 23:20:00,72.8,66.3,29.75,SE,128,0.0,0.0,80,0.00,,,0.01,Wunderground v.1.15,2013-06-27 03:20:00,
2013-06-26 23:26:00,72.6,66.4,29.75,SE,128,0.0,0.0,81,0.00,,,0.01,Wunderground v.1.15,2013-06-27 03:26:00,
2013-06-26 23:33:00,72.2,66.4,29.75,SE,128,0.0,0.0,82,0.00,,,0.01,Wunderground v.1.15,2013-06-27 03:33:00,
2013-06-26 23:38:00,72.0,66.6,29.75,SE,128,0.0,0.0,83,0.00,,,0.01,Wunderground v.1.15,2013-06-27 03:38:00,
2013-06-26 23:44:00,71.8,66.4,29.75,SE,128,0.0,0.0,83,0.00,,,0.01,Wunderground v.1.15,2013-06-27 03:44:00,
2013-06-26 23:50:00,71.6,66.5,29.75,SE,128,0.0,0.0,84,0.00,,,0.01,Wunderground v.1.15,2013-06-27 03:50:00,
2013-06-26 23:55:00,71.5,66.4,29.76,SE,128,0.0,0.0,84,0.00,,,0.01,Wunderground v.1.15,2013-06-27 03:55:00,